| time (UTC) | temp F | wind direction | speed knots | gust knots | rain 1hr in | rain 24hr in | rain mn in | humidity % | barometer mb |
| 20260504120309 | 71 | 49 | 3.5 | 6.1 | 0.00 | 0.00 | 0.00 | 43 | 1014.3 |
| 20260504100141 | 68 | 281 | 3.5 | 7.0 | 0.00 | 0.00 | 0.00 | 48 | 1015.5 |
| 20260504081630 | 62 | 97 | 1.7 | 6.1 | 0.00 | 0.00 | 0.00 | 53 | 1015.5 |
| 20260504044632 | 49 | 298 | 2.6 | 4.3 | 0.00 | 0.00 | 0.00 | 74 | 1014.8 |
| 20260504043030 | 52 | 295 | 0.9 | 1.7 | 0.00 | 0.00 | 0.00 | 69 | 1014.4 |
| 20260504041536 | 51 | 76 | 0.9 | 2.6 | 0.00 | 0.00 | 0.00 | 70 | 1014.2 |
| 20260504040020 | 51 | 67 | 0.9 | 5.2 | 0.00 | 0.00 | 0.00 | 69 | 1014.0 |
| 20260504034623 | 53 | 17 | 2.6 | 3.5 | 0.00 | 0.00 | 0.00 | 65 | 1014.1 |
| 20260504033010 | 53 | 315 | 0.9 | 1.7 | 0.00 | 0.00 | 0.00 | 66 | 1014.4 |
| 20260504031514 | 53 | 316 | 0.0 | 0.9 | 0.00 | 0.00 | 0.00 | 66 | 1014.4 |
| 20260504030109 | 53 | 314 | 0.0 | 1.7 | 0.00 | 0.00 | 0.00 | 67 | 1014.4 |
| 20260504024520 | 54 | 333 | 0.0 | 1.7 | 0.00 | 0.00 | 0.00 | 65 | 1014.5 |
| 20260504023026 | 53 | 333 | 0.0 | 2.6 | 0.00 | 0.00 | 0.00 | 67 | 1014.3 |
| 20260504021510 | 53 | 304 | 2.6 | 4.3 | 0.00 | 0.00 | 0.00 | 68 | 1014.4 |
| 20260504020011 | 54 | 293 | 3.5 | 4.3 | 0.00 | 0.00 | 0.00 | 66 | 1014.3 |
| 20260504014518 | 55 | 297 | 1.7 | 2.6 | 0.00 | 0.00 | 0.00 | 65 | 1014.2 |
| 20260504013127 | 55 | 302 | 0.9 | 2.6 | 0.00 | 0.00 | 0.00 | 64 | 1014.0 |
| 20260504011526 | 56 | 36 | 0.0 | 0.9 | 0.00 | 0.00 | 0.00 | 59 | 1013.9 |
| 20260504010010 | 57 | 126 | 0.0 | 0.9 | 0.00 | 0.00 | 0.00 | 59 | 1013.8 |
| 20260504004534 | 57 | 88 | 0.9 | 4.3 | 0.00 | 0.00 | 0.00 | 58 | 1013.8 |
| 20260504003019 | 57 | 63 | 0.0 | 0.9 | 0.00 | 0.00 | 0.00 | 59 | 1013.8 |
| 20260504001532 | 56 | 288 | 0.0 | 1.7 | 0.00 | 0.00 | 0.00 | 59 | 1013.8 |
| 20260504000024 | 57 | 287 | 2.6 | 2.6 | 0.00 | 0.00 | 0.00 | 59 | 1013.8 |
| 20260503234546 | 58 | 90 | 0.9 | 6.1 | 0.00 | 0.00 | 0.00 | 57 | 1013.6 |
| 20260503233018 | 59 | 45 | 3.5 | 4.3 | 0.00 | 0.00 | 0.00 | 55 | 1013.5 |
| 20260503231523 | 60 | 31 | 3.5 | 4.3 | 0.00 | 0.00 | 0.00 | 54 | 1013.6 |
| 20260503230026 | 61 | 352 | 1.7 | 4.3 | 0.00 | 0.00 | 0.00 | 51 | 1013.4 |
| 20260503224629 | 65 | 53 | 1.7 | 2.6 | 0.00 | 0.00 | 0.00 | 46 | 1013.3 |
| 20260503223109 | 65 | 86 | 3.5 | 7.0 | 0.00 | 0.00 | 0.00 | 44 | 1013.0 |
| 20260503221522 | 65 | 72 | 3.5 | 6.1 | 0.00 | 0.00 | 0.00 | 44 | 1012.9 |
| 20260503220031 | 65 | 145 | 3.5 | 6.1 | 0.00 | 0.00 | 0.00 | 44 | 1012.9 |
| 20260503214536 | 66 | 226 | 5.2 | 9.6 | 0.00 | 0.00 | 0.00 | 43 | 1012.8 |
| 20260503213032 | 67 | 151 | 7.8 | 13.9 | 0.00 | 0.00 | 0.00 | 43 | 1012.7 |
| 20260503211528 | 67 | 174 | 9.6 | 13.9 | 0.00 | 0.00 | 0.00 | 42 | 1012.8 |
| 20260503210019 | 67 | 164 | 11.3 | 14.8 | 0.00 | 0.00 | 0.00 | 41 | 1012.8 |
| 20260503204527 | 67 | 138 | 9.6 | 14.8 | 0.00 | 0.00 | 0.00 | 41 | 1012.9 |
| 20260503203028 | 68 | 164 | 9.6 | 16.5 | 0.00 | 0.00 | 0.00 | 41 | 1012.9 |
| 20260503201526 | 68 | 158 | 7.8 | 11.3 | 0.00 | 0.00 | 0.00 | 41 | 1013.0 |
| 20260503200028 | 68 | 155 | 7.8 | 12.2 | 0.00 | 0.00 | 0.00 | 40 | 1013.1 |
| 20260503194523 | 68 | 144 | 6.1 | 9.6 | 0.00 | 0.00 | 0.00 | 40 | 1013.1 |
| 20260503193050 | 67 | 127 | 2.6 | 4.3 | 0.00 | 0.00 | 0.00 | 39 | 1013.1 |
| 20260503191528 | 68 | 133 | 3.5 | 7.0 | 0.00 | 0.00 | 0.00 | 38 | 1013.0 |
| 20260503190017 | 69 | 144 | 4.3 | 7.8 | 0.00 | 0.00 | 0.00 | 36 | 1013.0 |
| 20260503184519 | 69 | 156 | 5.2 | 7.0 | 0.00 | 0.00 | 0.00 | 35 | 1012.9 |
| 20260503183031 | 70 | 139 | 4.3 | 6.1 | 0.00 | 0.00 | 0.00 | 33 | 1012.8 |
| 20260503181522 | 70 | 123 | 2.6 | 4.3 | 0.00 | 0.00 | 0.00 | 33 | 1012.7 |
| 20260503180024 | 71 | 129 | 1.7 | 3.5 | 0.00 | 0.00 | 0.00 | 31 | 1012.8 |
| 20260503174516 | 72 | 131 | 1.7 | 5.2 | 0.00 | 0.00 | 0.00 | 31 | 1012.6 |
| 20260503173022 | 73 | 141 | 2.6 | 4.3 | 0.00 | 0.00 | 0.00 | 29 | 1012.6 |
| 20260503171526 | 74 | 105 | 2.6 | 7.0 | 0.00 | 0.00 | 0.00 | 28 | 1012.6 |